Weather Roundup
Issued by NWS Chicago, IL

Home | Current Version | Previous Version | Graphics & Text | Print | Product List | Glossary On
Versions: 1 2 3 4 5 6 7 8 9 10 11 12 13 14 15 16 17 18 19 20 21 22 23 24 25 26 27 28 29 30 31 32 33 34 35 36 37 38 39 40 41 42 43 44 45 46 47 48 49 50
000
NZUS59 KLOT 300806
HRRLOT

CHICAGO AREA WEATHER ROUNDUP
NATIONAL WEATHER SERVICE CHICAGO/ROMEOVILLE IL
300 AM CDT SAT AUG 30 2014

NOTE: "FAIR" INDICATES FEW OR NO CLOUDS BELOW 12,000 FEET WITH NO
SIGNIFICANT WEATHER AND/OR OBSTRUCTIONS TO VISIBILITY.

* THESE STATIONS ARE NOT UNDER NWS QUALITY CONTROL. THEY ALSO MAY NOT
  REPORT WEATHER SUCH AS PRECIPITATION OR FOG.

ILZ005-006-012>014-019>023-300900-
NORTHEAST ILLINOIS

CITY           SKY/WX    TMP DP  RH WIND       PRES   REMARKS
OHARE          CLOUDY    74  67  78 S13       29.83F
MIDWAY         CLOUDY    76  70  82 S9        29.84F
AURORA         CLOUDY    73  68  84 S12       29.84S
LANSING*         N/A    N/A N/A N/A MISG        N/A
JOLIET*        CLOUDY    73  68  83 S8        29.86S
WAUKEGAN       CLOUDY    74  68  81 S9        29.81F
DUPAGE AIRPORT CLOUDY    74  69  85 S12       29.83S
WHEELING       CLOUDY    76  68  76 S13       29.84F
KANKAKEE*      CLOUDY    73  69  87 S10       29.89R
MORRIS*        CLOUDY    74  72  93 SW9       29.85R
LEWIS AIRPORT* CLOUDY    72  70  93 S10       29.85S
NORTHERLY IS     N/A     75  67  76 S9          N/A
$$

WIZ051-052-058>065-066-070>072-300900-
SOUTHEAST WISCONSIN

CITY           SKY/WX    TMP DP  RH WIND       PRES   REMARKS
MILWAUKEE      CLOUDY    74  68  81 S9        29.81F
KENOSHA*       CLOUDY    74  69  85 S8        29.82F
RACINE*        CLOUDY    73  68  84 S6        29.82F
BURLINGTON     CLOUDY    70  67  92 S5        29.81S
WAUKESHA       CLOUDY    70  68  94 S6        29.82S
WEST BEND      CLOUDY    72  64  78 S7        29.80S
$$

INZ001>003-010>013-019-020-300900-
NORTHWEST INDIANA

CITY           SKY/WX    TMP DP  RH WIND       PRES   REMARKS
GARY*          MOCLDY    76  69  78 S8        29.86F
MICHIGAN CITY* NOT AVBL
RENSSELAER*    NOT AVBL
VALPARAISO     PTCLDY    72  68  87 S7        29.90F
$$

LMZ740>746-300900-
SOUTHERN LAKE MICHIGAN

STATION/POSITION TIME  SKY/WX   TEMP WIND        PRES    VSBY
                                AIR  DIR/SP/G
                 (UTC)          (F)  (DEG/KT/KT) (MB)    (MI)
HARRISON CRIB    0800            74  180/ 18/ 19   N/A
BURNHAM HARBOR   0800            75  190/ 11       N/A
CALUMET HARBOR   0800            75  170/  9/ 13 1009.5F
BURNS HARBOR     NOT AVBL
MICHIGAN CITY    0800            74  150/ 14/ 20   N/A
$$

ABBREVIATIONS USED IN REMARKS
   TC - TEMPERATURE IN CELSIUS
  WCI - WIND CHILL INDEX
   HX - HEAT INDEX
  VSB - VISIBILITY
$$



USA.gov is the U.S. government's official web portal to all federal, state and local government web resources and services.